Location: Knowlton
(51.2333°N, 1.2667°E)
Time: 09:38:41
(UTC+00:00)

Cosmos 2333 Rocket - Pass Details

Date: 18 April 2021
Orbit: 838 x 864 km, 70.8° (Epoch: 05 May)

Event Time Altitude Azimuth Distance (km) Brightness Sun altitude
Rises 19:55:48 0° 327° (NNW) 3,456 6.7 -9.2°
Reaches altitude 10° 19:58:18 10° 323° (NW) 2,513 5.9 -9.6°
Maximum altitude 20:03:56 56° 247° (WSW) 1,022 2.9 -10.3°
Drops below altitude 10° 20:09:30 10° 171° (S) 2,485 4.2 -11.0°
Enters shadow 20:10:56 - 168° (SSE) 3,021 4.7 -11.2°
